Weather History for Hot Springs, VA

Change the Weather History Date:

Sunday, April 15, 2012

  Actual Average Record
Temperature  
Mean Temperature 64 °F -  
Max Temperature 75 °F 55 °F 75 °F (2012)
Min Temperature 53 °F 38 °F 19 °F (2014)
Degree Days  
Heating Degree Days 1    
Growing Degree Days 14 (Base 50)    
Moisture  
Dew Point 46 °F    
Average Humidity 57    
Maximum Humidity 72    
Minimum Humidity 29    
Precipitation  
Precipitation 0.00 in - - ()
Sea Level Pressure  
Sea Level Pressure 30.21 in    
Wind  
Wind Speed 13 mph (WSW)    
Max Wind Speed 20 mph    
Max Gust Speed 26 mph    
Visibility 10 miles    
Events      
Averages and records for this station are not official NWS values.
T = Trace of Precipitation, MM = Missing Value Source: NWS Daily Summary

Daily Weather History Graph

Daily Weather History Graph

Search for Another Location

Airport:

Trip Planner

Search our weather history database for the weather conditions in past years. The results will help you decide how hot, cold, wet, or windy it might be!

Date:

Astronomy

Apr. 15, 2012 Rise Set
Actual Time 6:43 AM EDT 7:55 PM EDT
Civil Twilight 6:16 AM EDT 8:22 PM EDT
Nautical Twilight 5:43 AM EDT 8:55 PM EDT
Astronomical Twilight 5:09 AM EDT 9:29 PM EDT
Moon 3:34 AM EDT (4/15) 2:53 PM EDT (4/15)
Length of Visible Light 14h 06m
Length of Day
13h 12m
Waning Crescent, 28% of the Moon is Illuminated
Apr 15
Waning Crescent
Apr 21
New
Apr 29
First Quarter
May 5
Full
May 12
Last Quarter

Hourly Weather History & Observations

Time (EDT) Temp. Dew Point Humidity Pressure Visibility Wind Dir Wind Speed Gust Speed Precip Events Conditions
12:16 AM 57.2 °F 42.8 °F 59% 30.20 in 10.0 mi SW 9.2 mph - N/A   Overcast
12:36 AM 55.4 °F 42.8 °F 63% 30.20 in 10.0 mi SW 11.5 mph - N/A   Mostly Cloudy
12:58 AM 55.4 °F 42.8 °F 63% 30.20 in 10.0 mi WSW 11.5 mph - N/A   Scattered Clouds
1:16 AM 55.4 °F 42.8 °F 63% 30.19 in 10.0 mi WSW 12.7 mph 18.4 mph N/A   Clear
1:36 AM 55.4 °F 42.8 °F 63% 30.19 in 10.0 mi WSW 12.7 mph 18.4 mph N/A   Clear
1:56 AM 55.4 °F 42.8 °F 63% 30.19 in 10.0 mi WSW 16.1 mph 21.9 mph N/A   Clear
2:18 AM 55.4 °F 42.8 °F 63% 30.18 in 10.0 mi WSW 18.4 mph - N/A   Clear
2:36 AM 55.4 °F 42.8 °F 63% 30.18 in 10.0 mi WSW 12.7 mph 24.2 mph N/A   Scattered Clouds
2:58 AM 55.4 °F 42.8 °F 63% 30.18 in 10.0 mi WSW 17.3 mph - N/A   Clear
3:18 AM 55.4 °F 42.8 °F 63% 30.18 in 10.0 mi WSW 18.4 mph - N/A   Clear
3:38 AM 55.4 °F 42.8 °F 63% 30.17 in 10.0 mi WSW 19.6 mph 25.3 mph N/A   Clear
3:58 AM 55.4 °F 42.8 °F 63% 30.17 in 10.0 mi WSW 18.4 mph 23.0 mph N/A   Clear
4:18 AM 55.4 °F 42.8 °F 63% 30.17 in 10.0 mi West 15.0 mph - N/A   Clear
4:38 AM 55.4 °F 42.8 °F 63% 30.17 in 10.0 mi West 15.0 mph - N/A   Clear
4:58 AM 55.4 °F 42.8 °F 63% 30.17 in 10.0 mi West 11.5 mph - N/A   Clear
5:18 AM 53.6 °F 42.8 °F 67% 30.18 in 10.0 mi West 12.7 mph - N/A   Clear
5:38 AM 53.6 °F 42.8 °F 67% 30.18 in 10.0 mi West 13.8 mph - N/A   Clear
5:58 AM 55.4 °F 42.8 °F 63% 30.17 in 10.0 mi West 13.8 mph - N/A   Clear
6:18 AM 53.6 °F 42.8 °F 67% 30.18 in 10.0 mi West 15.0 mph - N/A   Clear
6:38 AM 55.4 °F 42.8 °F 63% 30.19 in 10.0 mi West 13.8 mph 21.9 mph N/A   Clear
6:58 AM 55.4 °F 42.8 °F 63% 30.19 in 10.0 mi West 16.1 mph 20.7 mph N/A   Clear
7:18 AM 55.4 °F 44.6 °F 67% 30.20 in 10.0 mi West 15.0 mph - N/A   Clear
7:38 AM 55.4 °F 44.6 °F 67% 30.20 in 10.0 mi West 15.0 mph - N/A   Clear
7:58 AM 55.4 °F 44.6 °F 67% 30.21 in 10.0 mi West 13.8 mph 19.6 mph N/A   Clear
8:18 AM 55.4 °F 44.6 °F 67% 30.22 in 10.0 mi West 17.3 mph 21.9 mph N/A   Clear
8:58 AM 57.2 °F 44.6 °F 63% 30.23 in 10.0 mi West 17.3 mph 24.2 mph N/A   Clear
9:18 AM 57.2 °F 44.6 °F 63% 30.24 in 10.0 mi West 19.6 mph 24.2 mph N/A   Clear
9:38 AM 57.2 °F 44.6 °F 63% 30.23 in 10.0 mi West 18.4 mph 26.5 mph N/A   Clear
9:58 AM 57.2 °F 44.6 °F 63% 30.24 in 10.0 mi West 17.3 mph 25.3 mph N/A   Clear
10:18 AM 60.8 °F 46.4 °F 59% 30.25 in 10.0 mi West 13.8 mph - N/A   Clear
10:36 AM 60.8 °F 46.4 °F 59% 30.25 in 10.0 mi West 15.0 mph 25.3 mph N/A   Clear
10:56 AM 60.8 °F 46.4 °F 59% 30.26 in 10.0 mi West 13.8 mph 24.2 mph N/A   Clear
11:16 AM 62.6 °F 46.4 °F 55% 30.26 in 10.0 mi West 16.1 mph 21.9 mph N/A   Clear
11:36 AM 62.6 °F 46.4 °F 55% 30.26 in 10.0 mi West 15.0 mph 25.3 mph N/A   Clear
11:56 AM 64.4 °F 48.2 °F 56% 30.26 in 10.0 mi West 11.5 mph 19.6 mph N/A   Clear
12:16 PM 66.2 °F 48.2 °F 52% 30.25 in 10.0 mi WNW 10.4 mph 19.6 mph N/A   Clear
12:38 PM 66.2 °F 46.4 °F 49% 30.24 in 10.0 mi WNW 11.5 mph 19.6 mph N/A   Clear
12:56 PM 69.8 °F 48.2 °F 46% 30.25 in 10.0 mi West 11.5 mph 19.6 mph N/A   Clear
1:16 PM 71.6 °F 46.4 °F 41% 30.24 in 10.0 mi West 15.0 mph 19.6 mph N/A   Clear
1:38 PM 69.8 °F 46.4 °F 43% 30.24 in 10.0 mi SW 10.4 mph 26.5 mph N/A   Clear
1:58 PM 71.6 °F 46.4 °F 41% 30.23 in 10.0 mi WSW 12.7 mph 18.4 mph N/A   Clear
2:16 PM 73.4 °F 44.6 °F 36% 30.22 in 7.0 mi WSW 12.7 mph 20.7 mph N/A   Clear
2:58 PM 73.4 °F 44.6 °F 36% 30.21 in 10.0 mi SSW 12.7 mph 21.9 mph N/A   Clear
3:18 PM 75.2 °F 44.6 °F 34% 30.21 in 10.0 mi SW 11.5 mph 21.9 mph N/A   Clear
3:39 PM 75.2 °F 44.6 °F 34% 30.20 in 10.0 mi SW 15.0 mph 23.0 mph N/A   Clear
3:56 PM 75.2 °F 42.8 °F 31% 30.20 in 10.0 mi SW 12.7 mph 18.4 mph N/A   Clear
4:16 PM 75.2 °F 41.0 °F 29% 30.20 in 10.0 mi SW 15.0 mph 26.5 mph N/A   Clear
4:56 PM 73.4 °F 48.2 °F 41% 30.19 in 10.0 mi SSE 8.1 mph - N/A   Clear
5:18 PM 71.6 °F 46.4 °F 41% 30.19 in 10.0 mi South 6.9 mph - N/A   Clear
5:36 PM 71.6 °F 46.4 °F 41% 30.19 in 10.0 mi SSW 4.6 mph - N/A   Clear
5:56 PM 71.6 °F 48.2 °F 43% 30.20 in 10.0 mi South 11.5 mph 17.3 mph N/A   Clear
6:19 PM 69.8 °F 46.4 °F 43% 30.20 in 10.0 mi South 8.1 mph - N/A   Clear
6:36 PM 69.8 °F 46.4 °F 43% 30.20 in 10.0 mi South 8.1 mph - N/A   Clear
7:19 PM 68.0 °F 46.4 °F 46% 30.20 in 10.0 mi South 11.5 mph - N/A   Clear
7:36 PM 66.2 °F 46.4 °F 49% 30.20 in 10.0 mi South 8.1 mph - N/A   Clear
7:56 PM 66.2 °F 46.4 °F 49% 30.20 in 10.0 mi South 8.1 mph - N/A   Clear
8:16 PM 64.4 °F 48.2 °F 56% 30.20 in 10.0 mi South 11.5 mph - N/A   Clear
8:36 PM 64.4 °F 50.0 °F 59% 30.21 in 10.0 mi South 10.4 mph 17.3 mph N/A   Clear
8:56 PM 64.4 °F 51.8 °F 64% 30.21 in 10.0 mi South 12.7 mph 17.3 mph N/A   Clear
9:16 PM 62.6 °F 51.8 °F 68% 30.22 in 10.0 mi South 11.5 mph - N/A   Clear
9:38 PM 62.6 °F 53.6 °F 72% 30.22 in 10.0 mi South 9.2 mph - N/A   Clear
9:58 PM 62.6 °F 53.6 °F 72% 30.22 in 10.0 mi South 10.4 mph - N/A   Clear
10:16 PM 62.6 °F 53.6 °F 72% 30.22 in 10.0 mi SSW 10.4 mph 20.7 mph N/A   Clear
10:36 PM 62.6 °F 53.6 °F 72% 30.22 in 10.0 mi SSW 9.2 mph - N/A   Clear
10:59 PM 62.6 °F 53.6 °F 72% 30.22 in 10.0 mi SSW 10.4 mph 18.4 mph N/A   Clear
11:16 PM 62.6 °F 53.6 °F 72% 30.22 in 10.0 mi SSW 10.4 mph - N/A   Clear
11:36 PM 62.6 °F 53.6 °F 72% 30.21 in 10.0 mi SW 11.5 mph 16.1 mph N/A   Clear